Abha, Saudi Arabia

4:16 AM +03 on September 21, 2019 (GMT +0300)
Abha

Weather History for OEAB - May, 2019

Change the Weather History Date:

Tuesday, May 28, 2019

  Actual Average Record
Temperature  
Mean Temperature 70 °F -  
Max Temperature 80 °F 84 °F 91 °F (2017)
Min Temperature 60 °F 61 °F 59 °F (1997)
Cooling Degree Days 5    
Growing Degree Days 20 (Base 50)    
Moisture  
Dew Point 48 °F    
Average Humidity 48    
Maximum Humidity 72    
Minimum Humidity 24    
Precipitation  
Precipitation 0.00 in - - ()
Sea Level Pressure  
Sea Level Pressure 30.25 in    
Wind  
Wind Speed 4 mph ()    
Max Wind Speed 12 mph    
Max Gust Speed -    
Visibility 6.2 miles    
Events Thunderstorm    
Averages and records for this station are not official NWS values.
T = Trace of Precipitation, MM = Missing Value Source: Averaged Metar Reports

Daily Weather History Graph

Daily Weather History Graph

Search for Another Location

Airport or City:

Astronomy

May. 28, 2019 Rise Set
Actual Time 5:33 AM +03 6:40 PM +03
Civil Twilight 5:09 AM +03 7:04 PM +03
Nautical Twilight 4:41 AM +03 7:32 PM +03
Astronomical Twilight 4:12 AM +03 8:01 PM +03
Moon 1:29 AM +03 (5/28) 1:30 PM +03 (5/28)
Length of Visible Light 13h 54m
Length of Day
13h 07m
Waning Crescent, 34% of the Moon is Illuminated
May 28
Waning Crescent
Jun 3
New
Jun 10
First Quarter
Jun 17
Full
Jun 25
Last Quarter

Hourly Weather History & Observations

Time (+03) Temp. Dew Point Humidity Pressure Visibility Wind Dir Wind Speed Gust Speed Precip Events Conditions
12:00 AM 66.2 °F 48.2 °F 52% 30.27 in 6.2 mi East 6.9 mph - N/A   Partly Cloudy
1:00 AM 66.2 °F 48.2 °F 52% 30.24 in 6.2 mi East 8.1 mph - N/A   Partly Cloudy
2:00 AM 62.6 °F 48.2 °F 59% 30.24 in - WNW 4.6 mph - N/A   Clear
3:00 AM 64.4 °F 50.0 °F 59% 30.24 in - Calm Calm - N/A   Clear
4:00 AM 62.6 °F 50.0 °F 63% 30.24 in - Calm Calm - N/A   Clear
5:00 AM 60.8 °F 48.2 °F 63% 30.21 in - Calm Calm - N/A   Clear
6:00 AM 60.8 °F 51.8 °F 72% 30.24 in - Calm Calm - N/A   Clear
7:00 AM 64.4 °F 51.8 °F 64% 30.27 in - Calm Calm - N/A   Clear
8:00 AM 69.8 °F 50.0 °F 49% 30.27 in - Calm Calm - N/A   Clear
9:00 AM 75.2 °F 44.6 °F 34% 30.27 in - East 6.9 mph - N/A   Clear
10:00 AM 78.8 °F 44.6 °F 30% 30.27 in - East 4.6 mph - N/A   Clear
11:00 AM 80.6 °F 41.0 °F 24% 30.27 in 6.2 mi ESE 6.9 mph - N/A   Scattered Clouds
12:00 PM 78.8 °F 44.6 °F 30% 30.24 in 6.2 mi South 10.4 mph - N/A   Partly Cloudy
1:00 PM 78.8 °F 42.8 °F 28% 30.24 in 6.2 mi SSW 11.5 mph - N/A   Partly Cloudy
3:00 PM 73.4 °F 50.0 °F 44% 30.21 in 6.2 mi WSW 8.1 mph - N/A Thunderstorm Thunderstorm
5:00 PM 69.8 °F 50.0 °F 49% 30.24 in 6.2 mi West 4.6 mph - N/A   Partly Cloudy
7:00 PM 69.8 °F 51.8 °F 53% 30.24 in 6.2 mi SW 4.6 mph - N/A   Scattered Clouds
8:00 PM 69.8 °F 48.2 °F 46% 30.24 in 6.2 mi NNW 6.9 mph - N/A   Scattered Clouds
9:00 PM 68.0 °F 48.2 °F 49% 30.24 in 6.2 mi NNW 4.6 mph - N/A   Partly Cloudy
10:00 PM 66.2 °F 46.4 °F 49% 30.27 in 6.2 mi NNW 4.6 mph - N/A   Partly Cloudy
11:00 PM 68.0 °F 48.2 °F 49% 30.27 in 6.2 mi Calm Calm - N/A   Partly Cloudy